Location: *
(2.5500°S, 65.9667°W)
Time: 12:07:02
(UTC+00:00)

ARGOS - Pass Details

Date: 26 October 2021
Orbit: 820 x 835 km, 98.4° (Epoch: 28 November)

Event Time Altitude Azimuth Distance (km) Brightness Sun altitude
Rises 22:34:10 0° 145° (SE) 3,359 6.1 -5.9°
Reaches altitude 10° 22:36:55 10° 133° (SE) 2,425 5.3 -6.5°
Maximum altitude 22:41:16 25° 78° (ENE) 1,594 4.1 -7.6°
Drops below altitude 10° 22:45:37 10° 24° (NNE) 2,423 5.2 -8.6°
Sets 22:48:20 0° 11° (N) 3,355 6.1 -9.3°
